Bodega Marine Reserve, California Weather observations

Data are for 10 minute period ending at time listed.
 Day   Time   Solar   Ave.   Ave.  Ave.  Vector  Max.   Baro.   Total    
  of    of     Rad.   Air    Rel.  Wind   Wind   Wind  Press.  Precip.   
Year   Day            Temp.  Hum.  Speed  Dir.   Gust                    
2014   (PST)  Kw/m2    F      %     mph   deg.    mph    mb.     in.     
-------------------------------------------------------------------------
 325   19:10   0.00   56.4    88    3.8   104     6.4   1016.3    0.00 
 325   19:20   0.00   56.3    89    3.4   111     5.6   1016.3    0.00 
 325   19:30   0.00   56.0    89    2.6   116     5.1   1015.9    0.00 
 325   19:40   0.00   56.0    89    3.0   114     4.8   1016.3    0.00 
 325   19:50   0.00   56.2    89    3.3   117     5.6   1016.3    0.00 
 325   20:00   0.00   56.3    88    3.6   120     6.4   1016.3    0.00 
 325   20:10   0.00   56.4    88    5.9   124     9.7   1016.3    0.00 
 325   20:20   0.00   56.7    88    7.6   128    10.6   1015.9    0.00 
 325   20:30   0.00   56.9    88    7.2   130     9.9   1016.3    0.00 
 325   20:40   0.00   56.8    88    5.3   124     8.3   1015.9    0.00 
 325   20:50   0.00   56.7    88    5.1   126     8.3   1016.3    0.00 
 325   21:00   0.00   56.8    88    4.6   121     8.4   1015.9    0.00 
 325   21:10   0.00   56.8    89    4.2   121     8.0   1015.9    0.00 
 325   21:20   0.00   56.8    89    7.2   125    10.9   1015.6    0.00 
 325   21:30   0.00   56.8    90    7.9   126    11.8   1015.6    0.00 
 325   21:40   0.00   56.8    90    7.9   140    11.8   1015.9    0.00 
 325   21:50   0.00   56.7    91    7.6   134     9.6   1015.9    0.00 
 325   22:00   0.00   57.0    91    8.8   133    13.8   1015.6    0.00 
 325   22:10   0.00   57.7    92   11.1   140    14.5   1015.9    0.00 
 325   22:20   0.00   57.9    92   10.7   149    15.9   1015.9    0.00 
 325   22:30   0.00   57.9    92   12.3   149    17.0   1015.6    0.00 
 325   22:40   0.00   57.9    92   11.0   149    18.0   1015.6    0.00 
 325   22:50   0.00   58.0    93   11.8   156    16.7   1015.6    0.00 
 325   23:00   0.00   57.9    94   10.8   157    16.4   1015.9    0.00 
 325   23:10   0.00   57.9    94   11.8   160    17.9   1015.9    0.00 
 325   23:20   0.00   57.9    95   10.9   160    18.0   1015.9    0.01 
 325   23:30   0.00   57.8    95    9.4   158    15.4   1015.9    0.01 
 325   23:40   0.00   58.0    96   11.4   159    17.2   1015.9    0.00 
 325   23:50   0.00   58.2    96   13.1   158    18.6   1015.6    0.01 
 326    0:00   0.00   58.2    96   12.4   160    20.0   1015.6    0.00 
 326    0:10   0.00   58.2    96   12.5   159    21.5   1015.2    0.00 
 326    0:20   0.00   58.3    96   12.4   156    17.2   1015.2    0.01 
 326    0:30   0.00   58.3    96   12.2   156    17.6   1015.2    0.00 
 326    0:40   0.00   58.4    96   13.0   158    19.6   1015.2    0.01 
 326    0:50   0.00   58.5    96   13.2   159    21.5   1014.9    0.01 
 326    1:00   0.00   58.6    97   14.9   164    22.8   1014.9    0.01 
 326    1:10   0.00   58.7    97   13.1   167    20.8   1014.9    0.01 
 326    1:20   0.00   58.7    97   11.8   173    17.6   1014.9    0.01 
 326    1:30   0.00   58.7    97   11.5   172    18.2   1014.6    0.00 
 326    1:40   0.00   58.8    97    9.9   180    19.3   1014.6    0.01 
 326    1:50   0.00   59.1    97   11.9   171    19.7   1014.6    0.00 
 326    2:00   0.00   59.2    97    9.9   172    15.1   1014.6    0.00 
 326    2:10   0.00   59.5    97    7.7   186    15.6   1014.6    0.01 
 326    2:20   0.00   59.5    97    8.6   192    12.5   1014.6    0.00 
 326    2:30   0.00   59.8    97   10.0   203    16.6   1014.6    0.02 
 326    2:40   0.00   60.1    97   10.9   204    15.9   1014.6    0.00 
 326    2:50   0.00   60.2    97   10.3   205    15.6   1014.6    0.00 
 326    3:00   0.00   60.3    97    9.2   203    14.5   1014.2    0.00 
 326    3:10   0.00   60.4    97    8.0   202    13.9   1014.2    0.00 
 326    3:20   0.00   60.2    97    6.5   188    11.6   1014.2    0.00 
 326    3:30   0.00   59.8    97    7.0   188    10.9   1013.9    0.00 
 326    3:40   0.00   59.8    97    7.2   184    13.4   1013.5    0.00 
 326    3:50   0.00   60.1    97    8.8   199    17.0   1013.5    0.01 
 326    4:00   0.00   60.5    97    8.2   211    13.7   1013.5    0.00 
 326    4:10   0.00   60.5    97    8.6   210    13.2   1013.5    0.00 
 326    4:20   0.00   60.6    97   10.1   209    17.3   1013.2    0.00 
 326    4:30   0.00   60.6    97   13.4   206    19.1   1013.2    0.00 
 326    4:40   0.00   60.6    97   11.9   210    18.5   1013.2    0.01 
 326    4:50   0.00   60.5    97   10.8   222    16.7   1013.2    0.03 
 326    5:00   0.00   60.6    97   10.5   226    16.5   1013.2    0.03 
 326    5:10   0.00   60.8    97   11.6   232    19.8   1013.2    0.01 
 326    5:20   0.00   60.9    97   12.3   238    19.6   1013.2    0.01 
 326    5:30   0.00   60.9    97   12.6   236    18.0   1013.5    0.01 
 326    5:40   0.00   61.0    97   13.0   241    18.3   1013.5    0.01 
 326    5:50   0.00   61.0    97   14.6   242    19.1   1013.5    0.00 
 326    6:00   0.00   61.0    97   13.8   239    19.7   1013.2    0.01 
 326    6:10   0.00   61.1    97   15.4   241    20.6   1013.2    0.00 
 326    6:20   0.00   61.1    97   16.1   243    22.6   1013.2    0.01 
 326    6:30   0.00   61.1    97   16.2   243    22.1   1013.2    0.00 
 326    6:40   0.00   61.0    97   14.0   246    20.5   1013.5    0.00 
 326    6:50   0.00   61.0    97   13.5   247    18.9   1013.5    0.01 
 326    7:00   0.00   61.0    97   14.0   248    19.6   1013.5    0.00 
 326    7:10   0.00   61.0    97   13.1   250    17.1   1013.5    0.00 
 326    7:20   0.00   61.0    97   13.9   252    18.3   1013.5    0.03 
 326    7:30   0.01   61.0    97   13.6   255    20.1   1013.5    0.00 
 326    7:40   0.01   61.0    97   14.4   255    18.9   1013.5    0.00 
 326    7:50   0.01   61.0    97   13.8   257    19.1   1013.9    0.01 
 326    8:00   0.01   61.0    97   16.4   263    27.5   1013.9    0.00 
 326    8:10   0.03   60.0    97   13.8   291    22.4   1014.2    0.00 
 326    8:20   0.06   59.6    97   12.8   293    16.9   1014.2    0.00 
 326    8:30   0.11   59.8    97   13.7   292    19.7   1014.2    0.00 
 326    8:40   0.09   59.6    97   13.8   288    17.8   1014.6    0.00 
 326    8:50   0.06   59.7    97   13.0   290    17.0   1014.9    0.00 
 326    9:00   0.07   59.7    97   13.3   292    18.0   1015.6    0.00 
 326    9:10   0.11   60.0    96   15.2   297    21.4   1015.9    0.00 
 326    9:20   0.13   60.1    96   14.7   297    19.9   1015.6    0.00 
 326    9:30   0.25   60.5    96   12.4   297    17.8   1015.6    0.00 
 326    9:40   0.27   60.6    95   13.2   296    17.8   1015.6    0.00 
 326    9:50   0.33   61.0    95   13.1   296    18.8   1015.9    0.00 
 326   10:00   0.37   61.3    94   14.1   295    19.1   1016.3    0.00 
 326   10:10   0.26   61.6    93   14.8   297    20.0   1016.6    0.00 
 326   10:20   0.24   61.3    94   12.8   297    17.9   1016.6    0.00 
 326   10:30   0.18   61.4    94   11.4   298    17.4   1016.6    0.00 
 326   10:40   0.21   61.3    94   11.8   295    16.7   1016.6    0.00 
 326   10:50   0.28   61.7    94   10.8   295    15.6   1016.6    0.00 
 326   11:00   0.26   62.0    93   11.8   297    15.6   1016.6    0.00 
 326   11:10   0.33   62.4    92   13.1   297    17.9   1016.6    0.00 
 326   11:20   0.29   62.3    91   15.1   296    20.4   1016.9    0.00 
 326   11:30   0.35   62.4    91   13.9   294    19.4   1016.9    0.00 
 326   11:40   0.41   62.6    91   15.2   292    21.5   1016.9    0.00 
 326   11:50   0.48   63.1    89   17.2   295    25.6   1016.9    0.00 
 326   12:00   0.50   63.3    87   18.7   299    26.3   1016.9    0.00 
 326   12:10   0.46   63.2    87   18.6   296    26.2   1016.9    0.00 
 326   12:20   0.45   62.9    86   18.5   297    25.1   1016.6    0.00 
 326   12:30   0.47   63.1    86   17.2   298    23.7   1016.6    0.00 
 326   12:40   0.43   63.4    85   16.1   298    21.3   1016.9    0.00 
 326   12:50   0.45   63.5    85   15.6   299    22.4   1016.9    0.00 
 326   13:00   0.46   63.3    84   18.1   298    24.0   1016.9    0.00 
 326   13:10   0.46   63.1    84   17.9   298    24.8   1016.9    0.00 
 326   13:20   0.44   63.1    84   17.4   299    23.6   1016.9    0.00 
 326   13:30   0.43   62.7    84   19.1   297    27.6   1016.9    0.00 
 326   13:40   0.42   62.7    84   18.6   301    25.7   1016.9    0.00 
 326   13:50   0.40   62.6    83   19.9   299    27.8   1017.3    0.00 
 326   14:00   0.39   62.5    83   19.1   300    26.4   1017.3    0.00 
 326   14:10   0.37   62.3    84   19.3   299    28.6   1017.3    0.00 
 326   14:20   0.35   62.0    84   20.3   297    28.5   1017.3    0.00 
 326   14:30   0.33   62.0    83   18.1   299    25.2   1017.3    0.00 
 326   14:40   0.32   61.8    83   20.0   298    28.9   1017.6    0.00 
 326   14:50   0.29   61.6    83   19.8   297    26.5   1017.6    0.00 
 326   15:00   0.30   61.5    83   19.7   298    27.0   1017.6    0.00 
 326   15:10   0.28   61.5    82   19.8   299    27.9   1018.0    0.00 
 326   15:20   0.20   60.9    82   19.9   300    28.9   1018.0    0.00 
 326   15:30   0.18   60.6    82   19.1   301    25.4   1017.6    0.00 
 326   15:40   0.18   60.4    81   19.6   300    25.1   1017.6    0.00 
 326   15:50   0.18   60.4    80   18.4   302    24.8   1017.6    0.00 
 326   16:00   0.13   60.0    81   19.8   303    26.5   1017.6    0.00 
 326   16:10   0.09   59.4    82   18.4   302    25.9   1017.6    0.00 
 326   16:20   0.05   59.1    82   17.7   302    23.4   1017.6    0.00 
 326   16:30   0.03   58.7    82   18.8   302    24.4   1018.0    0.00 
 326   16:40   0.02   58.5    83   17.2   303    23.2   1018.0    0.00 
 326   16:50   0.01   58.2    82   15.9   306    20.7   1018.0    0.00 
 326   17:00   0.00   58.0    83   15.0   304    20.2   1018.0    0.00 
 326   17:10   0.00   57.7    84   14.1   306    19.0   1018.0    0.00 
 326   17:20   0.00   57.6    85   13.9   306    18.1   1018.3    0.00 
 326   17:30   0.00   57.5    85   13.6   307    19.0   1018.3    0.00 
 326   17:40   0.00   57.3    84   12.9   309    17.3   1018.6    0.00 
 326   17:50   0.00   57.4    84   12.5   313    17.0   1018.6    0.00 
 326   18:00   0.00   57.2    84   11.3   310    14.0   1019.0    0.00 
 326   18:10   0.00   57.0    85   11.4   311    14.5   1019.0    0.00 
 326   18:20   0.00   56.9    86   10.9   311    16.0   1019.3    0.00 
 326   18:30   0.00   56.9    86    9.8   324    14.6   1019.3    0.00 
 326   18:40   0.00   56.5    86    8.6   314    13.7   1019.3    0.00 
 326   18:50   0.00   55.5    87    8.3   313    12.3   1019.3    0.00 
 326   19:00   0.00   55.1    87    8.1   318    10.8   1019.3    0.00 

Return to Bodega Marine Reserve graphs page.


Western Regional Climate Center,wrcc@dri.edu